GW5279 Weather Reports


time (UTC)temp
F
wind
direction
speed
knots
gust
knots
rain 1hr
in
rain 24hr
in
rain mn
in
humidity
%
barometer
mb
20260508034103 41 206 0.0 0.9 0.00 0.00 0.00 89 1016.7
20260508033601 41 206 0.0 0.0 0.00 0.00 0.00 88 1016.7
20260508033059 41 206 0.0 0.0 0.00 0.00 0.00 87 1016.7
20260508032555 41 206 0.0 0.9 0.00 0.00 0.00 86 1016.8
20260508032053 42 207 0.0 0.0 0.00 0.00 0.00 86 1016.7
20260508031550 42 207 0.0 0.0 0.00 0.00 0.00 85 1016.8
20260508031045 42 207 0.0 0.9 0.00 0.00 0.00 84 1016.7
20260508030542 43 207 0.0 0.0 0.00 0.00 0.00 83 1016.7
20260508030040 43 207 0.0 0.0 0.00 0.00 0.00 81 1016.6
20260508025536 44 207 0.0 0.0 0.00 0.00 0.00 80 1016.5
20260508025033 45 207 0.0 0.0 0.00 0.00 0.00 76 1016.5
20260508024529 45 207 0.0 0.0 0.00 0.00 0.00 74 1016.3
20260508024026 46 207 0.0 0.0 0.00 0.00 0.00 73 1016.4
20260508023523 48 207 0.0 0.9 0.00 0.00 0.00 69 1016.4
20260508023020 48 224 0.0 0.0 0.00 0.00 0.00 63 1016.2
20260508022516 49 224 0.0 0.0 0.00 0.00 0.00 63 1016.2
20260508022013 50 224 0.0 0.0 0.00 0.00 0.00 58 1016.1
20260508021509 50 234 0.0 0.0 0.00 0.00 0.00 55 1016.2
20260508021005 49 255 0.0 0.0 0.00 0.00 0.00 60 1016.1
20260508020503 49 255 0.0 0.0 0.00 0.00 0.00 58 1016.0
20260508015959 50 255 0.0 0.9 0.00 0.00 0.00 58 1015.8
20260508015457 49 256 0.0 0.9 0.00 0.00 0.00 57 1015.7
20260508014954 50 203 0.0 0.9 0.00 0.00 0.00 56 1015.7
20260508014451 49 226 0.0 0.9 0.00 0.00 0.00 57 1015.8
20260508013947 50 226 0.0 0.0 0.00 0.00 0.00 58 1015.5
20260508013443 51 228 0.0 0.0 0.00 0.00 0.00 54 1015.4
20260508012940 51 227 0.0 0.0 0.00 0.00 0.00 55 1015.3
20260508012437 51 260 0.0 0.0 0.00 0.00 0.00 53 1015.2
20260508011935 52 261 0.0 0.0 0.00 0.00 0.00 49 1015.2
20260508011434 52 261 0.0 0.9 0.00 0.00 0.00 49 1015.2
20260508010929 52 264 0.0 0.0 0.00 0.00 0.00 52 1015.0
20260508010427 53 264 0.0 0.0 0.00 0.00 0.00 52 1015.0
20260508005924 54 263 0.0 1.7 0.00 0.00 0.00 46 1015.0
20260508005420 54 277 0.9 6.1 0.00 0.00 0.00 46 1015.0
20260508004917 55 262 0.0 1.7 0.00 0.00 0.00 44 1015.0
20260508004413 55 285 0.0 6.1 0.00 0.00 0.00 42 1014.8
20260508003910 55 279 0.9 2.6 0.00 0.00 0.00 45 1014.8
20260508003407 55 252 3.5 3.5 0.00 0.00 0.00 41 1014.8
20260508002904 56 281 1.7 5.2 0.00 0.00 0.00 44 1014.6
20260508002400 56 261 0.9 1.7 0.00 0.00 0.00 45 1014.5
20260508001856 56 296 3.5 5.2 0.00 0.00 0.00 43 1014.5
20260508001352 56 283 2.6 3.5 0.00 0.00 0.00 44 1014.3
20260508000849 57 221 1.7 5.2 0.00 0.00 0.00 42 1014.2
20260508000345 57 288 0.0 2.6 0.00 0.00 0.00 44 1014.1
20260507235842 57 288 1.7 5.2 0.00 0.00 0.00 42 1014.0
20260507235340 57 299 0.9 7.0 0.00 0.00 0.00 44 1014.1
20260507234837 58 275 0.9 1.7 0.00 0.00 0.00 47 1014.2
20260507234333 58 284 0.0 7.0 0.00 0.00 0.00 45 1013.9
20260507233830 58 305 0.0 3.5 0.00 0.00 0.00 45 1013.9
20260507233327 58 245 2.6 6.1 0.00 0.00 0.00 41 1014.0
20260507232826 58 216 0.9 2.6 0.00 0.00 0.00 45 1013.8
20260507232321 59 306 0.0 7.0 0.00 0.00 0.00 45 1013.7
20260507231819 59 284 1.7 5.2 0.00 0.00 0.00 42 1013.7
20260507231315 60 280 0.9 7.0 0.00 0.00 0.00 44 1013.6
20260507230811 60 63 0.0 2.6 0.00 0.00 0.00 42 1013.7
20260507230309 60 317 0.0 0.9 0.00 0.00 0.00 42 1013.6
20260507225809 60 292 0.9 1.7 0.00 0.00 0.00 43 1013.7
20260507225306 60 203 0.0 0.9 0.00 0.00 0.00 42 1013.5
20260507224801 60 275 3.5 3.5 0.00 0.00 0.00 40 1013.5
20260507224258 59 265 0.9 1.7 0.00 0.00 0.00 43 1013.5
20260507223755 60 254 0.9 0.9 0.00 0.00 0.00 44 1013.5
20260507223251 62 270 0.0 1.7 0.00 0.00 0.00 45 1013.5
20260507222748 62 275 3.5 5.2 0.00 0.00 0.00 40 1013.4
20260507222244 63 279 6.1 7.8 0.00 0.00 0.00 38 1013.5
20260507221742 63 262 3.5 7.0 0.00 0.00 0.00 37 1013.5
20260507221238 62 266 1.7 2.6 0.00 0.00 0.00 40 1013.4
20260507220734 62 297 0.0 0.0 0.00 0.00 0.00 43 1013.2
20260507220233 62 225 2.6 5.2 0.00 0.00 0.00 41 1013.3
20260507215728 62 292 2.6 3.5 0.00 0.00 0.00 42 1013.2
20260507215226 64 293 2.6 6.1 0.00 0.00 0.00 39 1013.1
20260507214723 65 274 1.7 2.6 0.00 0.00 0.00 38 1012.7
20260507214220 65 334 0.0 1.7 0.00 0.00 0.00 48 1013.0
20260507213715 64 311 0.9 3.5 0.00 0.00 0.00 39 1013.0
20260507213213 62 295 0.9 1.7 0.00 0.00 0.00 48 1012.9
20260507212709 62 341 0.0 3.5 0.00 0.00 0.00 47 1012.8
20260507212206 64 344 1.7 7.0 0.00 0.00 0.00 42 1012.8
20260507211702 62 251 0.9 0.9 0.00 0.00 0.00 44 1012.8
20260507211158 64 290 0.9 2.6 0.00 0.00 0.00 47 1012.9
20260507210656 60 261 1.7 2.6 0.00 0.00 0.00 48 1012.9
20260507210152 60 274 0.9 7.0 0.00 0.00 0.00 46 1012.7
20260507205649 61 245 3.5 3.5 0.00 0.00 0.00 41 1012.7
20260507205145 61 281 2.6 5.2 0.00 0.00 0.00 46 1012.7
20260507204642 64 349 1.7 5.2 0.00 0.00 0.00 41 1012.9
20260507204140 63 0 0.0 2.6 0.00 0.00 0.00 44 1012.8
20260507203637 62 275 1.7 2.6 0.00 0.00 0.00 40 1012.7
20260507203134 63 274 2.6 5.2 0.00 0.00 0.00 44 1012.7
20260507202630 64 200 5.2 9.6 0.00 0.00 0.00 39 1012.7
20260507202126 62 289 0.0 0.9 0.00 0.00 0.00 43 1012.8
20260507201621 60 311 2.6 5.2 0.00 0.00 0.00 46 1013.0
20260507201119 62 257 3.5 3.5 0.00 0.00 0.00 42 1013.0
20260507200614 63 297 4.3 8.7 0.00 0.00 0.00 39 1012.8
20260507200111 65 348 1.7 1.7 0.00 0.00 0.00 47 1012.9
20260507195608 65 282 3.5 3.5 0.00 0.00 0.00 42 1013.0
20260507195105 65 291 0.9 2.6 0.00 0.00 0.00 48 1013.1
20260507194601 61 352 0.9 0.9 0.00 0.00 0.00 48 1013.2
20260507194057 60 285 0.0 1.7 0.00 0.00 0.00 52 1013.4
20260507193555 62 243 1.7 2.6 0.00 0.00 0.00 48 1013.5
20260507193051 62 288 2.6 6.1 0.00 0.00 0.00 49 1013.4
20260507192548 63 21 1.7 5.2 0.00 0.00 0.00 44 1013.4
20260507192045 61 44 1.7 2.6 0.00 0.00 0.00 48 1013.3
20260507191540 61 356 0.9 6.1 0.00 0.00 0.00 48 1013.5
20260507191037 63 25 1.7 3.5 0.00 0.00 0.00 44 1013.3
20260507190534 62 242 4.3 6.1 0.00 0.00 0.00 48 1013.4
20260507190033 64 289 0.9 2.6 0.00 0.00 0.00 42 1013.5
20260507185531 62 303 0.0 0.9 0.00 0.00 0.00 48 1013.5
20260507185027 62 306 0.0 8.7 0.00 0.00 0.00 48 1013.4
20260507184526 65 297 0.9 2.6 0.00 0.00 0.00 48 1013.3
20260507184023 65 25 0.9 2.6 0.00 0.00 0.00 38 1013.2
20260507183519 64 329 0.9 1.7 0.00 0.00 0.00 51 1013.4
20260507183017 61 297 0.0 1.7 0.00 0.00 0.00 45 1013.4
20260507182512 61 261 0.9 2.6 0.00 0.00 0.00 48 1013.6
20260507182008 63 310 0.0 1.7 0.00 0.00 0.00 52 1013.7
20260507181506 62 299 1.7 7.8 0.00 0.00 0.00 52 1013.5
20260507181001 63 347 1.7 7.0 0.00 0.00 0.00 45 1013.6
20260507180458 60 264 0.9 0.9 0.00 0.00 0.00 47 1013.7
20260507175954 61 28 0.0 1.7 0.00 0.00 0.00 49 1013.6
20260507175451 61 303 0.0 0.9 0.00 0.00 0.00 49 1013.8
20260507174949 60 7 0.0 1.7 0.00 0.00 0.00 46 1013.7
20260507174446 61 293 0.9 7.0 0.00 0.00 0.00 49 1013.8
20260507173943 61 251 2.6 7.8 0.00 0.00 0.00 44 1013.8
20260507173440 58 353 0.0 2.6 0.00 0.00 0.00 54 1013.8
20260507172937 60 276 3.5 3.5 0.00 0.00 0.00 49 1014.0
20260507172433 61 248 0.0 1.7 0.00 0.00 0.00 45 1013.9
20260507171930 62 249 2.6 3.5 0.00 0.00 0.00 44 1014.2
20260507171426 61 258 3.5 6.1 0.00 0.00 0.00 51 1014.2
20260507170924 61 299 0.0 0.9 0.00 0.00 0.00 52 1014.2
20260507170420 59 276 0.0 1.7 0.00 0.00 0.00 58 1014.4
20260507165916 61 292 2.6 3.5 0.00 0.00 0.00 46 1014.4
20260507165412 59 228 0.9 3.5 0.00 0.00 0.00 45 1014.5
20260507164908 62 260 1.7 2.6 0.00 0.00 0.00 45 1014.5
20260507164405 62 288 0.9 2.6 0.00 0.00 0.00 50 1014.5
20260507163903 61 285 0.9 5.2 0.00 0.00 0.00 55 1014.4
20260507163400 61 268 3.5 5.2 0.00 0.00 0.00 51 1014.3
20260507162857 62 241 0.9 1.7 0.00 0.00 0.00 44 1014.4
20260507162352 60 21 0.9 1.7 0.00 0.00 0.00 59 1014.5
20260507161849 60 233 3.5 8.7 0.00 0.00 0.00 47 1014.8
20260507161345 59 179 1.7 6.1 0.00 0.00 0.00 47 1014.7
20260507160842 60 261 5.2 7.0 0.00 0.00 0.00 51 1014.7
20260507160338 60 258 1.7 2.6 0.00 0.00 0.00 47 1014.7
20260507155834 60 265 0.0 5.2 0.00 0.00 0.00 51 1015.0
20260507155330 59 96 0.0 1.7 0.00 0.00 0.00 52 1015.0
20260507154827 60 283 7.0 7.8 0.00 0.00 0.00 48 1015.1
20260507154325 59 227 4.3 6.1 0.00 0.00 0.00 50 1015.1
20260507153821 59 156 0.0 3.5 0.00 0.00 0.00 49 1015.0
20260507153318 58 108 2.6 3.5 0.00 0.00 0.00 49 1014.9
20260507152814 58 245 1.7 5.2 0.00 0.00 0.00 51 1015.1
20260507152311 59 266 3.5 5.2 0.00 0.00 0.00 52 1015.1
20260507151806 58 132 2.6 3.5 0.00 0.00 0.00 50 1015.1
20260507151303 58 236 1.7 5.2 0.00 0.00 0.00 55 1015.1
20260507150800 60 30 0.9 1.7 0.00 0.00 0.00 52 1015.1
20260507150257 57 282 0.0 1.7 0.00 0.00 0.00 59 1015.2
20260507145753 57 241 0.0 6.1 0.00 0.00 0.00 53 1015.4
20260507145249 58 93 1.7 3.5 0.00 0.00 0.00 53 1015.3
20260507144746 56 120 1.7 2.6 0.00 0.00 0.00 51 1015.4
20260507144244 57 269 0.9 3.5 0.00 0.00 0.00 54 1015.7
20260507143740 58 294 0.0 1.7 0.00 0.00 0.00 58 1015.7
20260507143238 56 222 0.0 3.5 0.00 0.00 0.00 54 1015.8
20260507142734 59 299 0.0 0.9 0.00 0.00 0.00 60 1015.8
20260507142230 57 300 0.9 0.9 0.00 0.00 0.00 56 1016.0
20260507141727 56 291 0.9 2.6 0.00 0.00 0.00 60 1016.1
20260507141224 56 116 0.0 3.5 0.00 0.00 0.00 58 1016.1
20260507140720 56 275 0.9 3.5 0.00 0.00 0.00 62 1016.1
20260507140218 57 14 0.9 1.7 0.00 0.00 0.00 54 1016.2
20260507135714 56 271 0.9 0.9 0.00 0.00 0.00 60 1016.3
20260507135212 55 250 0.0 0.9 0.00 0.00 0.00 65 1016.3
20260507134708 55 276 1.7 2.6 0.00 0.00 0.00 63 1016.4
20260507134204 56 121 2.6 2.6 0.00 0.00 0.00 63 1016.5
20260507133700 55 84 0.9 0.9 0.00 0.00 0.00 65 1016.4
20260507133157 55 91 1.7 2.6 0.00 0.00 0.00 67 1016.6
20260507132655 55 87 0.0 2.6 0.00 0.00 0.00 67 1016.5
20260507132151 55 80 0.0 0.9 0.00 0.00 0.00 68 1016.3
20260507131648 54 80 0.9 1.7 0.00 0.00 0.00 72 1016.5
20260507131145 54 80 1.7 1.7 0.00 0.00 0.00 73 1016.5
20260507130642 53 80 1.7 2.6 0.00 0.00 0.00 69 1016.4
20260507130140 53 148 0.9 0.9 0.00 0.00 0.00 73 1016.7
20260507125638 54 150 0.0 0.9 0.00 0.00 0.00 76 1016.5
20260507125136 53 150 0.0 0.0 0.00 0.00 0.00 75 1016.7
20260507124631 52 150 0.0 0.9 0.00 0.00 0.00 74 1016.7
20260507124129 51 150 0.0 0.9 0.00 0.00 0.00 74 1016.5
20260507123628 51 150 0.9 2.6 0.00 0.00 0.00 74 1016.6
20260507123124 51 212 0.0 0.0 0.00 0.00 0.00 74 1016.6
20260507122619 51 247 0.0 0.0 0.00 0.00 0.00 81 1016.8
20260507122116 51 247 0.0 0.0 0.00 0.00 0.00 79 1016.6
20260507121612 50 247 0.0 0.0 0.00 0.00 0.00 83 1016.7
20260507121108 50 246 0.0 0.0 0.00 0.00 0.00 80 1016.6
20260507120604 50 246 0.0 0.0 0.00 0.00 0.00 82 1016.6
20260507120100 50 246 0.0 0.0 0.00 0.00 0.00 86 1016.6
20260507115557 49 246 0.0 0.0 0.00 0.00 0.00 83 1016.4
20260507115053 49 246 0.0 0.0 0.00 0.00 0.00 86 1016.4
20260507114549 49 246 0.0 0.0 0.00 0.00 0.00 88 1016.4
20260507114046 49 246 0.0 0.0 0.00 0.00 0.00 92 1016.3
20260507113543 49 246 0.0 0.0 0.00 0.00 0.00 93 1016.3
20260507113040 48 246 0.0 0.0 0.00 0.00 0.00 94 1016.3
20260507112538 48 246 0.0 0.0 0.00 0.00 0.00 94 1016.0
20260507112035 48 246 0.0 0.0 0.00 0.00 0.00 95 1016.0
20260507111532 48 246 0.0 0.0 0.00 0.00 0.00 96 1016.2
20260507111028 48 246 0.0 0.0 0.00 0.00 0.00 95 1016.1
20260507110525 48 246 0.0 0.0 0.00 0.00 0.00 96 1015.9
20260507110021 48 245 0.0 0.0 0.00 0.00 0.00 96 1016.0
20260507105519 48 245 0.0 0.0 0.00 0.00 0.00 96 1015.9
20260507105014 48 245 0.0 0.0 0.00 0.00 0.00 96 1015.8
20260507104512 48 245 0.0 0.0 0.00 0.00 0.00 95 1015.5
20260507104008 48 245 0.0 0.0 0.00 0.00 0.00 95 1015.8
20260507103505 48 245 0.0 0.0 0.00 0.00 0.00 93 1015.7
20260507103000 48 245 0.0 0.0 0.00 0.00 0.00 93 1015.7
20260507102458 48 246 0.0 0.0 0.00 0.00 0.00 92 1015.7
20260507101954 48 246 0.0 0.9 0.00 0.00 0.00 92 1015.5
20260507101449 49 255 0.0 0.9 0.00 0.00 0.00 93 1015.5
20260507100946 49 255 0.0 0.0 0.00 0.00 0.00 93 1015.2
20260507100443 49 255 0.0 0.0 0.00 0.00 0.00 90 1015.5
20260507095942 49 255 0.0 0.0 0.00 0.00 0.00 89 1015.2
20260507095439 49 255 0.0 0.9 0.00 0.00 0.00 91 1015.4
20260507094935 49 255 0.0 0.0 0.00 0.00 0.00 90 1015.4
20260507094432 49 255 0.0 0.0 0.00 0.00 0.00 90 1015.7
20260507093929 49 255 0.0 0.0 0.00 0.00 0.00 91 1015.2
20260507093427 49 255 0.0 0.0 0.00 0.00 0.00 90 1015.4
20260507092925 49 255 0.0 0.0 0.00 0.00 0.00 91 1015.4
20260507092421 49 255 0.0 0.0 0.00 0.00 0.00 90 1015.3
20260507091918 49 255 0.0 0.0 0.00 0.00 0.00 90 1015.2
20260507091414 49 255 0.0 0.0 0.00 0.00 0.00 90 1015.2
20260507090910 50 256 0.0 0.0 0.00 0.00 0.00 92 1015.1
20260507090406 49 256 0.0 0.0 0.00 0.00 0.00 91 1015.1
20260507085903 49 256 0.0 0.0 0.00 0.00 0.00 91 1015.3
20260507085400 49 256 0.0 0.0 0.00 0.00 0.00 92 1015.1
20260507084857 49 256 0.0 0.0 0.00 0.00 0.00 92 1015.1
20260507084354 49 256 0.0 0.9 0.00 0.00 0.00 92 1015.3
20260507083851 50 256 0.0 0.0 0.00 0.00 0.00 92 1015.2
20260507083347 50 256 0.0 0.0 0.00 0.00 0.00 92 1015.0
20260507082844 50 256 0.0 0.0 0.00 0.00 0.00 92 1015.1
20260507082339 50 256 0.0 0.0 0.00 0.00 0.00 92 1015.3
20260507081837 50 256 0.0 0.0 0.00 0.00 0.00 91 1015.2
20260507081332 50 256 0.0 0.0 0.00 0.00 0.00 89 1015.3
20260507080830 50 256 0.0 0.0 0.00 0.00 0.00 91 1015.2
20260507080326 50 255 0.0 0.0 0.00 0.00 0.00 90 1015.3
20260507075821 50 255 0.0 0.9 0.00 0.00 0.00 89 1015.3
20260507075317 50 255 0.9 0.9 0.00 0.00 0.00 90 1015.4
20260507074814 50 255 0.0 0.0 0.00 0.00 0.00 90 1015.4
20260507074312 50 255 0.0 0.0 0.00 0.00 0.00 90 1015.3
20260507073809 50 255 0.0 0.0 0.00 0.00 0.00 91 1015.2
20260507073305 50 255 0.0 0.9 0.00 0.00 0.00 90 1015.2
20260507072802 50 256 0.0 0.0 0.00 0.00 0.00 91 1015.3
20260507072300 50 256 0.0 0.0 0.00 0.00 0.00 93 1015.2
20260507071757 50 256 0.0 0.0 0.00 0.00 0.00 93 1015.2
20260507071253 50 256 0.0 0.0 0.00 0.00 0.00 93 1015.2
20260507070750 50 256 0.0 0.0 0.00 0.00 0.00 93 1015.3
20260507070247 50 256 0.0 0.0 0.00 0.00 0.00 94 1015.3
20260507065744 51 256 0.0 0.0 0.00 0.00 0.00 94 1015.2
20260507065241 50 256 0.0 0.0 0.00 0.00 0.00 93 1015.0
20260507064738 51 256 0.0 0.9 0.00 0.00 0.00 93 1015.1
20260507064237 51 256 0.0 0.0 0.00 0.00 0.00 94 1015.1
20260507063734 51 256 0.0 0.0 0.00 0.00 0.00 93 1015.1
20260507063231 51 256 0.0 0.0 0.00 0.00 0.00 93 1015.1
20260507062728 51 256 0.0 0.0 0.00 0.00 0.00 93 1015.1
20260507062225 51 256 0.0 0.0 0.00 0.00 0.00 91 1015.2
20260507061723 51 256 0.0 0.0 0.00 0.00 0.00 90 1015.1
20260507061220 51 256 0.0 0.9 0.00 0.00 0.00 90 1015.1
20260507060718 51 259 0.0 0.0 0.00 0.00 0.00 91 1015.2
20260507060214 51 259 0.0 0.9 0.00 0.00 0.00 91 1015.4
20260507055711 51 258 0.0 0.0 0.00 0.00 0.00 91 1015.3
20260507055207 51 255 0.9 0.9 0.00 0.00 0.00 92 1015.4
20260507054703 51 255 0.9 0.9 0.00 0.00 0.00 93 1015.2
20260507054159 51 255 0.0 0.0 0.00 0.00 0.00 93 1015.2
20260507053658 51 255 0.0 0.0 0.00 0.00 0.00 94 1015.4
20260507053155 51 255 0.0 1.7 0.00 0.00 0.00 94 1015.5
20260507052654 51 185 0.0 0.0 0.00 0.00 0.00 95 1015.5
20260507052149 51 185 0.0 0.0 0.00 0.00 0.00 95 1015.8
20260507051647 52 185 0.0 0.0 0.00 0.00 0.00 96 1015.7
20260507051144 51 185 0.0 0.0 0.00 0.00 0.00 96 1015.8
20260507050641 51 185 0.0 0.0 0.00 0.00 0.00 96 1015.7
20260507050137 51 185 0.0 0.0 0.00 0.00 0.00 98 1015.9
20260507045635 51 185 0.0 0.0 0.00 0.00 0.00 98 1015.9
20260507045131 52 185 0.0 0.0 0.00 0.00 0.00 99 1015.9
20260507044628 52 185 0.0 0.0 0.00 0.00 0.00 99 1015.9
20260507044125 52 185 0.0 0.0 0.00 0.00 0.00 99 1015.7
20260507043621 52 185 0.0 0.0 0.00 0.00 0.00 99 1015.8
20260507043118 52 186 0.0 0.0 0.00 0.00 0.00 99 1015.7
20260507042614 52 186 0.0 0.0 0.00 0.00 0.00 99 1015.5
20260507042109 52 186 0.0 0.0 0.00 0.00 0.00 99 1015.5
20260507041607 52 186 0.0 0.0 0.00 0.00 0.00 99 1015.4
20260507041103 52 186 0.0 0.9 0.00 0.00 0.00 99 1015.7
20260507040600 52 186 0.0 1.7 0.00 0.00 0.00 99 1015.4
20260507040056 52 227 0.0 0.0 0.00 0.54 0.54 99 1015.4
20260507035552 52 227 0.0 0.0 0.00 0.54 0.54 99 1015.4
20260507035049 52 227 0.0 0.0 0.00 0.54 0.54 99 1015.3
20260507034546 53 227 0.0 0.0 0.00 0.54 0.54 99 1015.2